Tracking 26321 objects as of 27-Nov-2022
HD Live streaming from Space Station
objects crossing your sky now

STARLINK-5034

Track STARLINK-5034 now!
10-day predictions
STARLINK-5034 is classified as:


NORAD ID: 53888
Int'l Code: 2022-119C
Perigee: 516.8 km
Apogee: 522.1 km
Inclination: 53.2 °
Period: 94.9 minutes
Semi major axis: 6890 km
RCS: Unknown
Launch date: September 24, 2022
Source: United States (US)
Launch site: AIR FORCE EASTERN TEST RANGE (AFETR)
aabbcc
Your satellite tracking list
Your tracking list is empty




NASA's NSSDC Master Catalog

Two Line Element Set (TLE):
1 53888U 22119C   22331.25001157 -.01115901  00000-0 -58895-1 0  9995
2 53888  53.2165 304.4276 0003880 257.9250 206.3168 15.17856095 10331
Source of the keplerian elements: AFSPC